| time (UTC) | temp C | wind direction | speed KPH | gust KPH | rain 1hr cm | rain 24hr cm | rain mn cm | humidity % | barometer mb |
| 20260507234814 | 12 | 158 | 0.0 | 0.0 | 0.00 | 0.00 | 0.00 | 96 | 1014.0 |
| 20260507234312 | 12 | 158 | 0.0 | 0.0 | 0.00 | 0.00 | 0.00 | 96 | 1014.0 |
| 20260507233812 | 12 | 158 | 0.0 | 0.0 | 0.00 | 0.00 | 0.00 | 96 | 1014.0 |
| 20260507233315 | 12 | 158 | 0.0 | 0.0 | 0.00 | 0.00 | 0.00 | 96 | 1014.0 |
| 20260507232812 | 12 | 158 | 0.0 | 0.0 | 0.00 | 0.00 | 0.00 | 95 | 1014.0 |
| 20260507232312 | 12 | 158 | 0.0 | 0.0 | 0.00 | 0.00 | 0.00 | 95 | 1014.0 |
| 20260507231812 | 12 | 158 | 0.0 | 0.0 | 0.00 | 0.00 | 0.00 | 95 | 1014.0 |
| 20260507231313 | 12 | 158 | 0.0 | 0.0 | 0.00 | 0.00 | 0.00 | 95 | 1014.0 |
| 20260507230814 | 12 | 158 | 0.0 | 1.6 | 0.00 | 0.00 | 0.00 | 95 | 1015.0 |
| 20260507230312 | 12 | 158 | 1.6 | 3.2 | 0.00 | 0.00 | 0.00 | 94 | 1014.0 |
| 20260507225812 | 12 | 158 | 1.6 | 3.2 | 0.00 | 0.00 | 0.00 | 94 | 1014.0 |
| 20260507225312 | 13 | 157 | 1.6 | 1.6 | 0.00 | 0.00 | 0.00 | 94 | 1014.0 |
| 20260507224813 | 13 | 157 | 1.6 | 3.2 | 0.00 | 0.00 | 0.00 | 94 | 1015.0 |
| 20260507224313 | 13 | 157 | 0.0 | 0.0 | 0.00 | 0.00 | 0.00 | 93 | 1014.0 |
| 20260507223813 | 13 | 157 | 1.6 | 1.6 | 0.00 | 0.00 | 0.00 | 94 | 1014.0 |
| 20260507223313 | 13 | 157 | 0.0 | 1.6 | 0.00 | 0.00 | 0.00 | 93 | 1014.0 |
| 20260507222812 | 13 | 157 | 0.0 | 1.6 | 0.00 | 0.00 | 0.00 | 93 | 1014.0 |
| 20260507222313 | 13 | 157 | 0.0 | 1.6 | 0.00 | 0.00 | 0.00 | 93 | 1014.0 |
| 20260507221812 | 13 | 157 | 0.0 | 0.0 | 0.00 | 0.00 | 0.00 | 93 | 1014.0 |
| 20260507221312 | 13 | 157 | 0.0 | 0.0 | 0.00 | 0.00 | 0.00 | 93 | 1014.0 |
| 20260507220812 | 13 | 157 | 0.0 | 1.6 | 0.00 | 0.00 | 0.00 | 94 | 1014.0 |
| 20260507220312 | 13 | 157 | 0.0 | 0.0 | 0.00 | 0.00 | 0.00 | 94 | 1014.0 |
| 20260507215812 | 13 | 157 | 1.6 | 1.6 | 0.00 | 0.00 | 0.00 | 95 | 1014.0 |
| 20260507215312 | 13 | 157 | 1.6 | 1.6 | 0.00 | 0.00 | 0.00 | 95 | 1014.0 |
| 20260507214812 | 13 | 157 | 1.6 | 1.6 | 0.00 | 0.00 | 0.00 | 95 | 1014.0 |
| 20260507214312 | 13 | 157 | 0.0 | 0.0 | 0.00 | 0.00 | 0.00 | 94 | 1014.0 |
| 20260507213813 | 13 | 157 | 0.0 | 0.0 | 0.00 | 0.00 | 0.00 | 94 | 1014.0 |
| 20260507213312 | 13 | 157 | 0.0 | 0.0 | 0.00 | 0.00 | 0.00 | 94 | 1014.0 |
| 20260507212812 | 13 | 157 | 0.0 | 0.0 | 0.00 | 0.00 | 0.00 | 94 | 1014.0 |
| 20260507212313 | 13 | 157 | 1.6 | 1.6 | 0.00 | 0.00 | 0.00 | 93 | 1014.0 |
| 20260507211812 | 13 | 157 | 1.6 | 1.6 | 0.00 | 0.00 | 0.00 | 94 | 1014.0 |
| 20260507211314 | 13 | 157 | 1.6 | 3.2 | 0.00 | 0.00 | 0.00 | 94 | 1014.0 |
| 20260507210812 | 13 | 157 | 0.0 | 0.0 | 0.00 | 0.00 | 0.00 | 94 | 1014.0 |
| 20260507210314 | 13 | 157 | 0.0 | 0.0 | 0.00 | 0.00 | 0.00 | 94 | 1014.0 |
| 20260507205813 | 13 | 157 | 0.0 | 0.0 | 0.00 | 0.00 | 0.00 | 93 | 1014.0 |
| 20260507205313 | 13 | 157 | 1.6 | 1.6 | 0.00 | 0.00 | 0.00 | 93 | 1014.0 |
| 20260507204812 | 13 | 157 | 1.6 | 1.6 | 0.00 | 0.00 | 0.00 | 93 | 1014.0 |
| 20260507204313 | 13 | 157 | 3.2 | 4.8 | 0.00 | 0.00 | 0.00 | 92 | 1014.0 |
| 20260507203812 | 14 | 101 | 3.2 | 3.2 | 0.00 | 0.00 | 0.00 | 92 | 1015.0 |
| 20260507203316 | 14 | 100 | 1.6 | 1.6 | 0.00 | 0.00 | 0.00 | 91 | 1015.0 |
| 20260507202813 | 15 | 100 | 0.0 | 0.0 | 0.00 | 0.00 | 0.00 | 91 | 1014.0 |
| 20260507202312 | 14 | 100 | 0.0 | 0.0 | 0.00 | 0.00 | 0.00 | 91 | 1015.0 |
| 20260507201812 | 14 | 100 | 0.0 | 0.0 | 0.00 | 0.00 | 0.00 | 91 | 1015.0 |
| 20260507201312 | 14 | 100 | 1.6 | 1.6 | 0.00 | 0.00 | 0.00 | 91 | 1014.0 |
| 20260507200813 | 14 | 100 | 0.0 | 1.6 | 0.00 | 0.00 | 0.00 | 90 | 1014.0 |
| 20260507200312 | 15 | 100 | 1.6 | 1.6 | 0.00 | 0.00 | 0.00 | 91 | 1014.0 |
| 20260507195813 | 15 | 100 | 0.0 | 0.0 | 0.00 | 0.00 | 0.00 | 90 | 1015.0 |
| 20260507195312 | 15 | 100 | 0.0 | 0.0 | 0.00 | 0.00 | 0.00 | 89 | 1015.0 |
| 20260507194813 | 15 | 100 | 0.0 | 0.0 | 0.00 | 0.00 | 0.00 | 89 | 1014.0 |
| 20260507194313 | 15 | 100 | 0.0 | 0.0 | 0.00 | 0.00 | 0.00 | 88 | 1014.0 |
| 20260507193812 | 15 | 100 | 0.0 | 0.0 | 0.00 | 0.00 | 0.00 | 88 | 1014.0 |
| 20260507193312 | 15 | 100 | 1.6 | 1.6 | 0.00 | 0.00 | 0.00 | 87 | 1014.0 |
| 20260507192813 | 15 | 100 | 0.0 | 0.0 | 0.00 | 0.00 | 0.00 | 86 | 1014.0 |
| 20260507192312 | 15 | 100 | 0.0 | 1.6 | 0.00 | 0.00 | 0.00 | 85 | 1014.0 |
| 20260507191813 | 16 | 100 | 1.6 | 1.6 | 0.00 | 0.00 | 0.00 | 86 | 1014.0 |
| 20260507191312 | 16 | 100 | 1.6 | 1.6 | 0.00 | 0.00 | 0.00 | 86 | 1014.0 |
| 20260507190812 | 15 | 100 | 0.0 | 0.0 | 0.00 | 0.00 | 0.00 | 86 | 1014.0 |
| 20260507190313 | 16 | 100 | 0.0 | 0.0 | 0.00 | 0.00 | 0.00 | 85 | 1014.0 |
| 20260507185812 | 16 | 100 | 0.0 | 0.0 | 0.00 | 0.00 | 0.00 | 84 | 1014.0 |
| 20260507185312 | 16 | 100 | 0.0 | 0.0 | 0.00 | 0.00 | 0.00 | 84 | 1014.0 |
| 20260507184815 | 16 | 100 | 0.0 | 0.0 | 0.00 | 0.00 | 0.00 | 83 | 1014.0 |
| 20260507184313 | 16 | 100 | 0.0 | 0.0 | 0.00 | 0.00 | 0.00 | 83 | 1014.0 |
| 20260507183813 | 16 | 100 | 0.0 | 0.0 | 0.00 | 0.00 | 0.00 | 82 | 1014.0 |
| 20260507183313 | 17 | 100 | 0.0 | 0.0 | 0.00 | 0.00 | 0.00 | 81 | 1014.0 |
| 20260507182812 | 17 | 100 | 0.0 | 0.0 | 0.00 | 0.00 | 0.00 | 80 | 1014.0 |
| 20260507182313 | 17 | 100 | 0.0 | 0.0 | 0.00 | 0.00 | 0.00 | 80 | 1014.0 |
| 20260507181814 | 17 | 100 | 0.0 | 0.0 | 0.00 | 0.00 | 0.00 | 79 | 1014.0 |
| 20260507181312 | 17 | 100 | 1.6 | 3.2 | 0.00 | 0.00 | 0.00 | 78 | 1014.0 |
| 20260507180814 | 18 | 108 | 4.8 | 4.8 | 0.00 | 0.00 | 0.00 | 78 | 1014.0 |
| 20260507180313 | 18 | 109 | 1.6 | 4.8 | 0.00 | 0.00 | 0.00 | 79 | 1014.0 |
| 20260507175812 | 18 | 109 | 4.8 | 11.3 | 0.00 | 0.00 | 0.00 | 79 | 1014.0 |
| 20260507175313 | 18 | 109 | 1.6 | 4.8 | 0.00 | 0.00 | 0.00 | 80 | 1014.0 |
| 20260507174813 | 18 | 158 | 3.2 | 8.0 | 0.00 | 0.00 | 0.00 | 80 | 1014.0 |
| 20260507174313 | 18 | 129 | 6.4 | 11.3 | 0.00 | 0.00 | 0.00 | 80 | 1014.0 |
| 20260507173814 | 18 | 108 | 6.4 | 9.7 | 0.00 | 0.00 | 0.00 | 82 | 1014.0 |
| 20260507173313 | 18 | 117 | 4.8 | 14.5 | 0.00 | 0.00 | 0.00 | 83 | 1013.0 |
| 20260507172812 | 18 | 107 | 3.2 | 8.0 | 0.00 | 0.00 | 0.00 | 83 | 1014.0 |
| 20260507172312 | 18 | 121 | 4.8 | 12.9 | 0.00 | 0.00 | 0.00 | 84 | 1014.0 |
| 20260507171814 | 18 | 133 | 8.0 | 14.5 | 0.00 | 0.00 | 0.00 | 84 | 1014.0 |
| 20260507171313 | 18 | 101 | 12.9 | 16.1 | 0.00 | 0.00 | 0.00 | 83 | 1014.0 |
| 20260507170812 | 18 | 135 | 8.0 | 16.1 | 0.00 | 0.00 | 0.00 | 83 | 1014.0 |
| 20260507170313 | 18 | 105 | 4.8 | 12.9 | 0.00 | 0.00 | 0.00 | 84 | 1014.0 |
| 20260507165816 | 18 | 84 | 8.0 | 12.9 | 0.00 | 0.00 | 0.00 | 83 | 1014.0 |
| 20260507165313 | 18 | 107 | 11.3 | 20.9 | 0.00 | 0.00 | 0.00 | 83 | 1014.0 |
| 20260507164812 | 18 | 87 | 9.7 | 12.9 | 0.00 | 0.00 | 0.00 | 80 | 1014.0 |
| 20260507164312 | 18 | 107 | 9.7 | 17.7 | 0.00 | 0.00 | 0.00 | 79 | 1014.0 |
| 20260507163813 | 18 | 106 | 9.7 | 14.5 | 0.00 | 0.00 | 0.00 | 78 | 1014.0 |
| 20260507163312 | 19 | 111 | 9.7 | 11.3 | 0.00 | 0.00 | 0.00 | 77 | 1014.0 |
| 20260507162813 | 19 | 113 | 6.4 | 16.1 | 0.00 | 0.00 | 0.00 | 73 | 1014.0 |
| 20260507162313 | 19 | 84 | 8.0 | 16.1 | 0.00 | 0.00 | 0.00 | 72 | 1014.0 |
| 20260507161813 | 19 | 111 | 9.7 | 14.5 | 0.00 | 0.00 | 0.00 | 71 | 1014.0 |
| 20260507161312 | 19 | 117 | 9.7 | 16.1 | 0.00 | 0.00 | 0.00 | 69 | 1014.0 |
| 20260507160812 | 19 | 103 | 11.3 | 14.5 | 0.00 | 0.00 | 0.00 | 66 | 1014.0 |
| 20260507160312 | 19 | 80 | 11.3 | 12.9 | 0.00 | 0.00 | 0.00 | 68 | 1014.0 |
| 20260507155813 | 19 | 105 | 6.4 | 11.3 | 0.00 | 0.00 | 0.00 | 67 | 1014.0 |
| 20260507155312 | 19 | 75 | 11.3 | 12.9 | 0.00 | 0.00 | 0.00 | 68 | 1014.0 |
| 20260507154813 | 19 | 91 | 6.4 | 12.9 | 0.00 | 0.00 | 0.00 | 67 | 1014.0 |
| 20260507154312 | 19 | 72 | 11.3 | 14.5 | 0.00 | 0.00 | 0.00 | 67 | 1014.0 |
| 20260507153813 | 19 | 64 | 8.0 | 14.5 | 0.00 | 0.00 | 0.00 | 64 | 1014.0 |
| 20260507153314 | 20 | 52 | 11.3 | 17.7 | 0.00 | 0.00 | 0.00 | 64 | 1014.0 |
| 20260507152812 | 20 | 75 | 8.0 | 14.5 | 0.00 | 0.00 | 0.00 | 62 | 1014.0 |
| 20260507152318 | 20 | 92 | 11.3 | 14.5 | 0.00 | 0.00 | 0.00 | 62 | 1014.0 |
| 20260507151813 | 20 | 56 | 8.0 | 17.7 | 0.00 | 0.00 | 0.00 | 61 | 1014.0 |
| 20260507151312 | 20 | 116 | 4.8 | 11.3 | 0.00 | 0.00 | 0.00 | 63 | 1014.0 |
| 20260507150814 | 20 | 35 | 9.7 | 17.7 | 0.00 | 0.00 | 0.00 | 59 | 1014.0 |
| 20260507150314 | 20 | 77 | 9.7 | 17.7 | 0.00 | 0.00 | 0.00 | 63 | 1014.0 |
| 20260507145812 | 20 | 78 | 8.0 | 17.7 | 0.00 | 0.00 | 0.00 | 61 | 1014.0 |
| 20260507145313 | 20 | 48 | 9.7 | 14.5 | 0.00 | 0.00 | 0.00 | 59 | 1014.0 |
| 20260507144813 | 20 | 52 | 4.8 | 17.7 | 0.00 | 0.00 | 0.00 | 65 | 1014.0 |
| 20260507144317 | 20 | 38 | 14.5 | 20.9 | 0.00 | 0.00 | 0.00 | 64 | 1014.0 |
| 20260507143812 | 20 | 65 | 14.5 | 20.9 | 0.00 | 0.00 | 0.00 | 64 | 1014.0 |
| 20260507143312 | 20 | 46 | 8.0 | 16.1 | 0.00 | 0.00 | 0.00 | 63 | 1014.0 |
| 20260507142813 | 20 | 78 | 9.7 | 17.7 | 0.00 | 0.00 | 0.00 | 61 | 1014.0 |
| 20260507142321 | 20 | 46 | 6.4 | 14.5 | 0.00 | 0.00 | 0.00 | 64 | 1014.0 |
| 20260507141817 | 20 | 55 | 11.3 | 12.9 | 0.00 | 0.00 | 0.00 | 62 | 1014.0 |
| 20260507141313 | 20 | 54 | 14.5 | 17.7 | 0.00 | 0.00 | 0.00 | 63 | 1014.0 |
| 20260507140813 | 20 | 95 | 4.8 | 17.7 | 0.00 | 0.00 | 0.00 | 64 | 1014.0 |
| 20260507140313 | 20 | 44 | 12.9 | 22.5 | 0.00 | 0.00 | 0.00 | 65 | 1014.0 |
| 20260507135813 | 20 | 70 | 6.4 | 14.5 | 0.00 | 0.00 | 0.00 | 63 | 1014.0 |
| 20260507135312 | 19 | 64 | 11.3 | 16.1 | 0.00 | 0.00 | 0.00 | 66 | 1014.0 |
| 20260507134812 | 20 | 47 | 9.7 | 20.9 | 0.00 | 0.00 | 0.00 | 64 | 1014.0 |
| 20260507134314 | 20 | 51 | 8.0 | 16.1 | 0.00 | 0.00 | 0.00 | 61 | 1014.0 |
| 20260507133814 | 20 | 59 | 8.0 | 14.5 | 0.00 | 0.00 | 0.00 | 62 | 1014.0 |
| 20260507133312 | 20 | 47 | 11.3 | 14.5 | 0.00 | 0.00 | 0.00 | 63 | 1014.0 |
| 20260507132813 | 20 | 68 | 8.0 | 12.9 | 0.00 | 0.00 | 0.00 | 62 | 1014.0 |
| 20260507132312 | 20 | 52 | 8.0 | 14.5 | 0.00 | 0.00 | 0.00 | 65 | 1014.0 |
| 20260507131812 | 20 | 81 | 6.4 | 16.1 | 0.00 | 0.00 | 0.00 | 62 | 1014.0 |
| 20260507131313 | 20 | 81 | 11.3 | 16.1 | 0.00 | 0.00 | 0.00 | 64 | 1014.0 |
| 20260507130813 | 20 | 67 | 4.8 | 14.5 | 0.00 | 0.00 | 0.00 | 64 | 1014.0 |
| 20260507130313 | 20 | 17 | 9.7 | 22.5 | 0.00 | 0.00 | 0.00 | 64 | 1014.0 |
| 20260507125813 | 20 | 50 | 14.5 | 20.9 | 0.00 | 0.00 | 0.00 | 61 | 1014.0 |
| 20260507125312 | 20 | 55 | 9.7 | 16.1 | 0.00 | 0.00 | 0.00 | 62 | 1014.0 |
| 20260507124813 | 20 | 15 | 11.3 | 16.1 | 0.00 | 0.00 | 0.00 | 65 | 1014.0 |
| 20260507124315 | 20 | 34 | 12.9 | 16.1 | 0.00 | 0.00 | 0.00 | 63 | 1014.0 |
| 20260507123812 | 20 | 57 | 11.3 | 22.5 | 0.00 | 0.00 | 0.00 | 62 | 1014.0 |
| 20260507123313 | 20 | 18 | 14.5 | 17.7 | 0.00 | 0.00 | 0.00 | 63 | 1014.0 |
| 20260507122812 | 20 | 39 | 12.9 | 17.7 | 0.00 | 0.00 | 0.00 | 63 | 1014.0 |
| 20260507122313 | 20 | 51 | 16.1 | 22.5 | 0.00 | 0.00 | 0.00 | 61 | 1014.0 |
| 20260507121812 | 20 | 47 | 9.7 | 17.7 | 0.00 | 0.00 | 0.00 | 64 | 1014.0 |
| 20260507121312 | 20 | 9 | 14.5 | 20.9 | 0.00 | 0.00 | 0.00 | 63 | 1014.0 |
| 20260507120812 | 20 | 24 | 9.7 | 17.7 | 0.00 | 0.00 | 0.00 | 64 | 1014.0 |
| 20260507120312 | 20 | 14 | 11.3 | 16.1 | 0.00 | 0.00 | 0.00 | 63 | 1014.0 |
| 20260507115812 | 20 | 36 | 14.5 | 17.7 | 0.00 | 0.00 | 0.00 | 63 | 1014.0 |
| 20260507115313 | 20 | 30 | 11.3 | 20.9 | 0.00 | 0.00 | 0.00 | 58 | 1014.0 |
| 20260507114813 | 20 | 10 | 12.9 | 24.1 | 0.00 | 0.00 | 0.00 | 62 | 1015.0 |
| 20260507114312 | 20 | 34 | 14.5 | 17.7 | 0.00 | 0.00 | 0.00 | 60 | 1014.0 |
| 20260507113812 | 20 | 29 | 8.0 | 14.5 | 0.00 | 0.00 | 0.00 | 58 | 1014.0 |
| 20260507113312 | 20 | 48 | 8.0 | 16.1 | 0.00 | 0.00 | 0.00 | 58 | 1014.0 |
| 20260507112812 | 20 | 30 | 12.9 | 16.1 | 0.00 | 0.00 | 0.00 | 62 | 1014.0 |
| 20260507112313 | 19 | 13 | 8.0 | 17.7 | 0.00 | 0.00 | 0.00 | 62 | 1015.0 |
| 20260507111812 | 19 | 37 | 8.0 | 20.9 | 0.00 | 0.00 | 0.00 | 66 | 1014.0 |
| 20260507111312 | 19 | 42 | 11.3 | 17.7 | 0.00 | 0.00 | 0.00 | 59 | 1014.0 |
| 20260507110813 | 19 | 51 | 8.0 | 17.7 | 0.00 | 0.00 | 0.00 | 62 | 1015.0 |
| 20260507110312 | 19 | 47 | 9.7 | 14.5 | 0.00 | 0.00 | 0.00 | 64 | 1015.0 |
| 20260507105813 | 19 | 46 | 11.3 | 22.5 | 0.00 | 0.00 | 0.00 | 58 | 1015.0 |
| 20260507105312 | 19 | 47 | 17.7 | 22.5 | 0.00 | 0.00 | 0.00 | 61 | 1014.0 |
| 20260507104812 | 20 | 32 | 14.5 | 20.9 | 0.00 | 0.00 | 0.00 | 62 | 1014.0 |
| 20260507104312 | 20 | 15 | 14.5 | 17.7 | 0.00 | 0.00 | 0.00 | 60 | 1015.0 |
| 20260507103813 | 20 | 47 | 11.3 | 17.7 | 0.00 | 0.00 | 0.00 | 65 | 1014.0 |
| 20260507103312 | 20 | 35 | 9.7 | 16.1 | 0.00 | 0.00 | 0.00 | 62 | 1014.0 |
| 20260507102812 | 20 | 53 | 12.9 | 22.5 | 0.00 | 0.00 | 0.00 | 64 | 1014.0 |
| 20260507102312 | 20 | 339 | 8.0 | 16.1 | 0.00 | 0.00 | 0.00 | 66 | 1015.0 |
| 20260507101812 | 20 | 46 | 11.3 | 17.7 | 0.00 | 0.00 | 0.00 | 61 | 1015.0 |
| 20260507101312 | 20 | 28 | 9.7 | 16.1 | 0.00 | 0.00 | 0.00 | 63 | 1014.0 |
| 20260507100813 | 20 | 17 | 9.7 | 17.7 | 0.00 | 0.00 | 0.00 | 63 | 1015.0 |
| 20260507100312 | 20 | 14 | 8.0 | 17.7 | 0.00 | 0.00 | 0.00 | 65 | 1015.0 |
| 20260507095326 | 20 | 62 | 8.0 | 12.9 | 0.00 | 0.00 | 0.00 | 67 | 1014.0 |
| 20260507094813 | 20 | 3 | 14.5 | 17.7 | 0.00 | 0.00 | 0.00 | 65 | 1014.0 |
| 20260507094312 | 20 | 27 | 8.0 | 16.1 | 0.00 | 0.00 | 0.00 | 64 | 1015.0 |
| 20260507093812 | 20 | 41 | 8.0 | 16.1 | 0.00 | 0.00 | 0.00 | 63 | 1015.0 |
| 20260507093312 | 20 | 50 | 8.0 | 14.5 | 0.00 | 0.00 | 0.00 | 64 | 1015.0 |
| 20260507092812 | 20 | 357 | 11.3 | 14.5 | 0.00 | 0.00 | 0.00 | 62 | 1015.0 |
| 20260507092312 | 20 | 27 | 8.0 | 20.9 | 0.00 | 0.00 | 0.00 | 64 | 1015.0 |
| 20260507091814 | 19 | 50 | 12.9 | 16.1 | 0.00 | 0.00 | 0.00 | 65 | 1014.0 |
| 20260507091312 | 19 | 44 | 12.9 | 20.9 | 0.00 | 0.00 | 0.00 | 63 | 1015.0 |
| 20260507090812 | 19 | 81 | 11.3 | 17.7 | 0.00 | 0.00 | 0.00 | 67 | 1014.0 |
| 20260507090312 | 19 | 77 | 11.3 | 24.1 | 0.00 | 0.00 | 0.00 | 67 | 1014.0 |
| 20260507085812 | 19 | 41 | 16.1 | 17.7 | 0.00 | 0.00 | 0.00 | 69 | 1015.0 |
| 20260507085313 | 18 | 31 | 12.9 | 22.5 | 0.00 | 0.00 | 0.00 | 69 | 1015.0 |
| 20260507084812 | 19 | 48 | 12.9 | 20.9 | 0.00 | 0.00 | 0.00 | 70 | 1015.0 |
| 20260507084312 | 20 | 47 | 11.3 | 16.1 | 0.00 | 0.00 | 0.00 | 67 | 1015.0 |
| 20260507083813 | 20 | 69 | 8.0 | 12.9 | 0.00 | 0.00 | 0.00 | 70 | 1014.0 |
| 20260507083313 | 20 | 19 | 4.8 | 12.9 | 0.00 | 0.00 | 0.00 | 67 | 1014.0 |
| 20260507082813 | 20 | 80 | 1.6 | 8.0 | 0.00 | 0.00 | 0.00 | 63 | 1014.0 |
| 20260507082312 | 20 | 4 | 4.8 | 9.7 | 0.00 | 0.00 | 0.00 | 65 | 1014.0 |
| 20260507081812 | 20 | 317 | 6.4 | 14.5 | 0.00 | 0.00 | 0.00 | 56 | 1014.0 |
| 20260507081313 | 20 | 286 | 3.2 | 8.0 | 0.00 | 0.00 | 0.00 | 55 | 1014.0 |
| 20260507080813 | 20 | 276 | 1.6 | 3.2 | 0.00 | 0.00 | 0.00 | 56 | 1014.0 |
| 20260507080313 | 20 | 232 | 3.2 | 4.8 | 0.00 | 0.00 | 0.00 | 56 | 1014.0 |
| 20260507075813 | 20 | 337 | 0.0 | 3.2 | 0.00 | 0.00 | 0.00 | 58 | 1014.0 |
| 20260507075313 | 20 | 75 | 1.6 | 3.2 | 0.00 | 0.00 | 0.00 | 62 | 1014.0 |
| 20260507074812 | 20 | 76 | 0.0 | 4.8 | 0.00 | 0.00 | 0.00 | 61 | 1014.0 |
| 20260507074312 | 20 | 76 | 0.0 | 4.8 | 0.00 | 0.00 | 0.00 | 65 | 1014.0 |
| 20260507073812 | 19 | 31 | 1.6 | 8.0 | 0.00 | 0.00 | 0.00 | 64 | 1014.0 |
| 20260507073313 | 20 | 31 | 1.6 | 4.8 | 0.00 | 0.00 | 0.00 | 63 | 1014.0 |
| 20260507072812 | 19 | 31 | 0.0 | 4.8 | 0.00 | 0.00 | 0.00 | 63 | 1014.0 |
| 20260507072313 | 19 | 30 | 1.6 | 4.8 | 0.00 | 0.00 | 0.00 | 66 | 1014.0 |
| 20260507071813 | 19 | 30 | 0.0 | 0.0 | 0.00 | 0.00 | 0.00 | 67 | 1014.0 |
| 20260507071314 | 18 | 30 | 0.0 | 1.6 | 0.00 | 0.00 | 0.00 | 69 | 1014.0 |
| 20260507070813 | 18 | 30 | 1.6 | 1.6 | 0.00 | 0.00 | 0.00 | 73 | 1014.0 |
| 20260507070312 | 18 | 30 | 1.6 | 3.2 | 0.00 | 0.00 | 0.00 | 72 | 1014.0 |
| 20260507065812 | 18 | 54 | 1.6 | 3.2 | 0.00 | 0.00 | 0.00 | 74 | 1014.0 |
| 20260507065312 | 18 | 82 | 3.2 | 3.2 | 0.00 | 0.00 | 0.00 | 75 | 1014.0 |
| 20260507064812 | 18 | 83 | 3.2 | 11.3 | 0.00 | 0.00 | 0.00 | 75 | 1014.0 |
| 20260507064312 | 17 | 105 | 1.6 | 1.6 | 0.00 | 0.00 | 0.00 | 80 | 1014.0 |
| 20260507063812 | 17 | 104 | 4.8 | 4.8 | 0.00 | 0.00 | 0.00 | 82 | 1014.0 |
| 20260507063312 | 17 | 101 | 1.6 | 3.2 | 0.00 | 0.00 | 0.00 | 83 | 1014.0 |
| 20260507062812 | 16 | 102 | 0.0 | 1.6 | 0.00 | 0.00 | 0.00 | 84 | 1014.0 |
| 20260507062312 | 16 | 102 | 0.0 | 1.6 | 0.00 | 0.00 | 0.00 | 85 | 1014.0 |
| 20260507061813 | 17 | 101 | 1.6 | 3.2 | 0.00 | 0.00 | 0.00 | 84 | 1014.0 |
| 20260507061312 | 17 | 101 | 3.2 | 8.0 | 0.00 | 0.00 | 0.00 | 83 | 1014.0 |
| 20260507060812 | 18 | 85 | 3.2 | 4.8 | 0.00 | 0.00 | 0.00 | 78 | 1014.0 |
| 20260507060312 | 17 | 240 | 4.8 | 4.8 | 0.00 | 0.00 | 0.00 | 75 | 1014.0 |
| 20260507055812 | 17 | 237 | 4.8 | 9.7 | 0.00 | 0.00 | 0.00 | 77 | 1014.0 |
| 20260507055312 | 17 | 255 | 6.4 | 11.3 | 0.00 | 0.00 | 0.00 | 78 | 1013.0 |
| 20260507054813 | 16 | 242 | 4.8 | 9.7 | 0.00 | 0.00 | 0.00 | 86 | 1013.0 |
| 20260507054312 | 15 | 223 | 1.6 | 3.2 | 0.00 | 0.00 | 0.00 | 93 | 1013.0 |
| 20260507053812 | 15 | 222 | 1.6 | 3.2 | 0.00 | 0.00 | 0.00 | 93 | 1013.0 |
| 20260507053312 | 14 | 221 | 0.0 | 0.0 | 0.00 | 0.00 | 0.00 | 94 | 1013.0 |
| 20260507052813 | 14 | 221 | 1.6 | 3.2 | 0.00 | 0.00 | 0.00 | 94 | 1013.0 |
| 20260507052312 | 14 | 223 | 0.0 | 0.0 | 0.00 | 0.00 | 0.00 | 94 | 1013.0 |
| 20260507051812 | 14 | 222 | 0.0 | 1.6 | 0.00 | 0.00 | 0.00 | 94 | 1013.0 |
| 20260507051313 | 14 | 222 | 1.6 | 1.6 | 0.00 | 0.00 | 0.00 | 94 | 1013.0 |
| 20260507050813 | 14 | 223 | 0.0 | 0.0 | 0.00 | 0.00 | 0.00 | 94 | 1013.0 |
| 20260507050313 | 14 | 223 | 1.6 | 3.2 | 0.00 | 0.00 | 0.00 | 93 | 1013.0 |
| 20260507045813 | 15 | 223 | 0.0 | 1.6 | 0.00 | 0.00 | 0.00 | 93 | 1013.0 |
| 20260507045314 | 15 | 228 | 3.2 | 3.2 | 0.00 | 0.00 | 0.00 | 94 | 1013.0 |
| 20260507044812 | 14 | 228 | 0.0 | 1.6 | 0.00 | 0.00 | 0.00 | 94 | 1013.0 |
| 20260507044312 | 14 | 228 | 1.6 | 3.2 | 0.00 | 0.00 | 0.00 | 94 | 1013.0 |
| 20260507043329 | 13 | 228 | 4.8 | 4.8 | 0.00 | 0.00 | 0.00 | 95 | 1013.0 |
| 20260507042815 | 13 | 227 | 3.2 | 4.8 | 0.00 | 0.00 | 0.00 | 96 | 1012.0 |
| 20260507042313 | 13 | 193 | 3.2 | 3.2 | 0.00 | 0.00 | 0.00 | 96 | 1012.0 |
| 20260507041812 | 13 | 193 | 0.0 | 3.2 | 0.00 | 0.00 | 0.00 | 96 | 1013.0 |
| 20260507041312 | 13 | 193 | 3.2 | 3.2 | 0.00 | 0.00 | 0.00 | 96 | 1013.0 |
| 20260507040812 | 13 | 193 | 1.6 | 1.6 | 0.00 | 0.00 | 0.00 | 96 | 1012.0 |
| 20260507040313 | 12 | 192 | 1.6 | 1.6 | 0.00 | 0.00 | 0.00 | 96 | 1012.0 |
| 20260507035812 | 12 | 192 | 0.0 | 0.0 | 0.00 | 0.00 | 0.00 | 96 | 1012.0 |
| 20260507035312 | 12 | 192 | 0.0 | 0.0 | 0.00 | 0.00 | 0.00 | 95 | 1012.0 |
| 20260507034813 | 13 | 192 | 0.0 | 1.6 | 0.00 | 0.00 | 0.00 | 95 | 1012.0 |
| 20260507034313 | 13 | 192 | 1.6 | 1.6 | 0.00 | 0.00 | 0.00 | 96 | 1012.0 |
| 20260507033813 | 13 | 192 | 0.0 | 3.2 | 0.00 | 0.00 | 0.00 | 96 | 1012.0 |
| 20260507033312 | 13 | 192 | 1.6 | 1.6 | 0.00 | 0.00 | 0.00 | 95 | 1012.0 |
| 20260507032814 | 13 | 191 | 3.2 | 3.2 | 0.00 | 0.00 | 0.00 | 95 | 1012.0 |
| 20260507032313 | 13 | 191 | 3.2 | 3.2 | 0.00 | 0.00 | 0.00 | 95 | 1012.0 |
| 20260507031813 | 13 | 191 | 1.6 | 1.6 | 0.00 | 0.00 | 0.00 | 95 | 1012.0 |
| 20260507031312 | 13 | 191 | 1.6 | 1.6 | 0.00 | 0.00 | 0.00 | 95 | 1012.0 |
| 20260507030812 | 13 | 191 | 1.6 | 3.2 | 0.00 | 0.00 | 0.00 | 94 | 1012.0 |
| 20260507030312 | 13 | 190 | 3.2 | 4.8 | 0.00 | 0.00 | 0.00 | 94 | 1012.0 |
| 20260507025813 | 13 | 322 | 1.6 | 1.6 | 0.00 | 0.00 | 0.00 | 94 | 1012.0 |
| 20260507025312 | 13 | 322 | 1.6 | 1.6 | 0.00 | 0.00 | 0.00 | 94 | 1012.0 |
| 20260507024812 | 13 | 322 | 0.0 | 1.6 | 0.00 | 0.00 | 0.00 | 93 | 1012.0 |
| 20260507024313 | 14 | 322 | 1.6 | 1.6 | 0.00 | 0.00 | 0.00 | 93 | 1012.0 |
| 20260507023813 | 14 | 322 | 1.6 | 3.2 | 0.00 | 0.00 | 0.00 | 93 | 1012.0 |
| 20260507023312 | 14 | 322 | 1.6 | 3.2 | 0.00 | 0.00 | 0.00 | 92 | 1012.0 |
| 20260507022813 | 14 | 322 | 1.6 | 1.6 | 0.00 | 0.00 | 0.00 | 92 | 1012.0 |
| 20260507022313 | 15 | 322 | 1.6 | 1.6 | 0.00 | 0.00 | 0.00 | 91 | 1012.0 |
| 20260507021813 | 15 | 322 | 0.0 | 1.6 | 0.00 | 0.00 | 0.00 | 92 | 1012.0 |
| 20260507021313 | 15 | 322 | 1.6 | 1.6 | 0.00 | 0.00 | 0.00 | 91 | 1012.0 |
| 20260507020812 | 15 | 322 | 3.2 | 3.2 | 0.00 | 0.00 | 0.00 | 91 | 1012.0 |
| 20260507020314 | 15 | 323 | 4.8 | 4.8 | 0.00 | 0.00 | 0.00 | 91 | 1012.0 |
| 20260507015812 | 15 | 323 | 0.0 | 0.0 | 0.00 | 0.00 | 0.00 | 91 | 1012.0 |
| 20260507015312 | 15 | 323 | 0.0 | 1.6 | 0.00 | 0.00 | 0.00 | 91 | 1012.0 |
| 20260507014813 | 15 | 323 | 0.0 | 0.0 | 0.00 | 0.00 | 0.00 | 91 | 1012.0 |
| 20260507014312 | 15 | 323 | 3.2 | 8.0 | 0.00 | 0.00 | 0.00 | 91 | 1012.0 |
| 20260507013812 | 15 | 323 | 3.2 | 3.2 | 0.00 | 0.00 | 0.00 | 91 | 1012.0 |
| 20260507012828 | 15 | 323 | 0.0 | 1.6 | 0.00 | 0.00 | 0.00 | 90 | 1012.0 |
| 20260507012312 | 15 | 323 | 1.6 | 3.2 | 0.00 | 0.00 | 0.00 | 89 | 1012.0 |
| 20260507011812 | 15 | 323 | 1.6 | 1.6 | 0.00 | 0.00 | 0.00 | 88 | 1012.0 |
| 20260507011313 | 15 | 323 | 0.0 | 0.0 | 0.00 | 0.00 | 0.00 | 88 | 1012.0 |
| 20260507010818 | 15 | 323 | 0.0 | 1.6 | 0.00 | 0.00 | 0.00 | 87 | 1012.0 |
| 20260507010312 | 15 | 323 | 1.6 | 3.2 | 0.00 | 0.00 | 0.00 | 87 | 1012.0 |
| 20260507005812 | 15 | 323 | 1.6 | 1.6 | 0.00 | 0.00 | 0.00 | 87 | 1012.0 |
| 20260507005312 | 15 | 323 | 3.2 | 4.8 | 0.00 | 0.00 | 0.00 | 87 | 1012.0 |
| 20260507004812 | 15 | 323 | 4.8 | 4.8 | 0.00 | 0.00 | 0.00 | 86 | 1012.0 |
| 20260507004313 | 16 | 324 | 1.6 | 3.2 | 0.00 | 0.00 | 0.00 | 85 | 1012.0 |
| 20260507003812 | 16 | 323 | 1.6 | 1.6 | 0.00 | 0.00 | 0.00 | 85 | 1012.0 |
| 20260507003313 | 16 | 323 | 1.6 | 1.6 | 0.00 | 0.00 | 0.00 | 84 | 1012.0 |
| 20260507002812 | 16 | 323 | 0.0 | 0.0 | 0.00 | 0.00 | 0.00 | 82 | 1012.0 |
| 20260507002314 | 16 | 323 | 0.0 | 1.6 | 0.00 | 0.00 | 0.00 | 82 | 1012.0 |
| 20260507001813 | 16 | 323 | 1.6 | 4.8 | 0.00 | 0.00 | 0.00 | 82 | 1012.0 |
| 20260507001312 | 16 | 324 | 6.4 | 8.0 | 0.00 | 0.00 | 0.00 | 82 | 1012.0 |
| 20260507000812 | 16 | 322 | 0.0 | 0.0 | 0.00 | 0.00 | 0.00 | 82 | 1012.0 |
| 20260507000320 | 16 | 322 | 1.6 | 3.2 | 0.00 | 0.00 | 0.00 | 82 | 1013.0 |
| 20260506235812 | 16 | 322 | 3.2 | 3.2 | 0.00 | 0.00 | 0.00 | 81 | 1012.0 |
| 20260506235312 | 16 | 322 | 0.0 | 1.6 | 0.00 | 0.00 | 0.00 | 80 | 1012.0 |